Location: LDNL
(36.4545°S, 141.6685°E)
Time: 11:57:56
(UTC+11:00)

X-37B - Pass Details

Date: 10 December 2022
Orbit: 277 x 277 km, 45.0° (Epoch: 01 November)

Event Time Altitude Azimuth Distance (km) Brightness Sun altitude
Exits shadow 05:10:46 - 360° (N) 1,167 2.6 -10.4°
Reaches altitude 10° 05:10:59 10° 4° (N) 1,111 2.6 -10.4°
Maximum altitude 05:12:27 14° 40° (NE) 912 2.5 -10.2°
Drops below altitude 10° 05:13:56 10° 77° (ENE) 1,120 3.5 -9.9°
Sets 05:16:24 0° 103° (ESE) 1,943 5.5 -9.5°
